FW4179 Weather Reports


time (UTC)temp
C
wind
direction
speed
KPH
gust
KPH
rain 1hr
cm
rain 24hr
cm
rain mn
cm
humidity
%
barometer
mb
20260509074606 11 134 1.6 4.8 0.00 0.00 0.00 86 1011.2
20260509073105 11 134 0.0 4.8 0.00 0.00 0.00 86 1011.3
20260509071557 11 0 0.0 6.4 0.00 0.00 0.00 85 1011.7
20260509070048 11 0 0.0 3.2 0.00 0.00 0.00 83 1011.6
20260509064550 12 0 0.0 3.2 0.00 0.00 0.00 82 1011.6
20260509063056 12 0 1.6 4.8 0.00 0.00 0.00 81 1011.6
20260509061548 12 0 0.0 6.4 0.00 0.00 0.00 80 1011.8
20260509060104 12 0 0.0 8.0 0.00 0.00 0.00 78 1012.1
20260509054545 13 0 0.0 8.0 0.00 0.00 0.00 78 1012.3
20260509053054 13 138 1.6 8.0 0.00 0.00 0.00 77 1012.3
20260509051547 13 150 3.2 8.0 0.00 0.00 0.00 76 1012.3
20260509050054 13 138 4.8 11.3 0.00 0.00 0.00 76 1012.3
20260509044547 13 138 3.2 11.3 0.00 0.00 0.00 74 1012.3
20260509043055 13 140 3.2 6.4 0.00 0.00 0.00 73 1012.4
20260509041547 13 135 3.2 11.3 0.00 0.00 0.00 72 1012.4
20260509040104 13 138 0.0 9.7 0.00 0.00 0.00 71 1012.7
20260509034547 14 0 0.0 6.4 0.00 0.00 0.00 69 1012.8
20260509033108 14 135 3.2 8.0 0.00 0.00 0.00 68 1012.8
20260509031553 15 138 1.6 4.8 0.00 0.00 0.00 66 1012.9
20260509030052 15 0 0.0 4.8 0.00 0.00 0.00 64 1012.8
20260509024556 15 136 1.6 4.8 0.00 0.00 0.00 64 1012.8
20260509023047 15 136 3.2 6.4 0.00 0.00 0.00 64 1012.9
20260509021550 16 140 3.2 11.3 0.00 0.00 0.00 62 1012.9
20260509020052 16 142 3.2 6.4 0.00 0.00 0.00 61 1012.8
20260509014550 16 150 3.2 6.4 0.00 0.00 0.00 60 1012.9
20260509013045 17 0 0.0 1.6 0.00 0.00 0.00 60 1012.7
20260509011551 17 0 0.0 0.0 0.00 0.00 0.00 58 1012.4
20260509010046 17 0 0.0 0.0 0.00 0.00 0.00 57 1012.5
20260509004543 18 0 0.0 1.6 0.00 0.00 0.00 56 1012.5
20260509003053 18 0 0.0 0.0 0.00 0.00 0.00 54 1012.6
20260509001542 19 0 0.0 3.2 0.00 0.00 0.00 53 1012.5
20260509000044 20 229 1.6 6.4 0.00 0.00 0.00 51 1012.7
20260508234545 20 0 0.0 0.0 0.00 0.00 0.00 50 1012.7
20260508233046 21 0 0.0 0.0 0.00 0.00 0.00 47 1012.8
20260508231553 21 0 1.6 6.4 0.00 0.00 0.00 46 1012.7
20260508230052 21 0 0.0 6.4 0.00 0.00 0.00 41 1012.5
20260508224553 21 0 1.6 6.4 0.00 0.00 0.00 47 1012.5
20260508223046 22 254 0.0 8.0 0.00 0.00 0.00 42 1012.5
20260508221545 22 255 3.2 9.7 0.00 0.00 0.00 41 1012.7
20260508220052 22 243 3.2 11.3 0.00 0.00 0.00 36 1012.9
20260508214548 22 126 3.2 9.7 0.00 0.00 0.00 39 1013.0
20260508213051 22 124 3.2 8.0 0.00 0.00 0.00 37 1012.9
20260508211548 22 143 3.2 9.7 0.00 0.00 0.00 38 1013.0
20260508210046 22 245 3.2 9.7 0.00 0.00 0.00 35 1013.1
20260508204547 22 252 1.6 11.3 0.00 0.00 0.00 34 1013.1
20260508203051 22 264 4.8 11.3 0.00 0.00 0.00 35 1013.2
20260508201547 21 147 3.2 11.3 0.00 0.00 0.00 38 1013.7
20260508200046 21 273 3.2 12.9 0.00 0.00 0.00 38 1013.7
20260508194600 21 134 1.6 11.3 0.00 0.00 0.00 38 1013.9
20260508193105 21 193 1.6 9.7 0.00 0.00 0.00 40 1014.2
20260508191550 21 63 1.6 11.3 0.00 0.00 0.00 41 1014.3
20260508190107 21 134 1.6 9.7 0.00 0.00 0.00 40 1015.0
20260508184543 20 148 4.8 11.3 0.00 0.00 0.00 44 1015.3
20260508183045 20 194 0.0 6.4 0.00 0.00 0.00 45 1015.5
20260508181552 20 144 3.2 8.0 0.00 0.00 0.00 44 1015.7
20260508180046 20 0 1.6 8.0 0.00 0.00 0.00 44 1016.0
20260508174548 19 134 3.2 12.9 0.00 0.00 0.00 43 1016.2
20260508173045 18 153 0.0 9.7 0.00 0.00 0.00 50 1016.2
20260508171549 18 133 3.2 11.3 0.00 0.00 0.00 46 1016.5
20260508170044 18 0 1.6 6.4 0.00 0.00 0.00 53 1016.8
20260508164544 17 271 3.2 14.5 0.00 0.00 0.00 42 1017.2
20260508163100 17 0 4.8 12.9 0.00 0.00 0.00 41 1017.4
20260508161554 17 130 1.6 11.3 0.00 0.00 0.00 47 1017.9
20260508160047 17 76 1.6 12.9 0.00 0.00 0.00 41 1018.1
20260508154547 16 107 3.2 14.5 0.00 0.03 0.00 49 1018.1
20260508153059 16 132 1.6 14.5 0.00 0.03 0.00 53 1018.2
20260508151548 16 155 1.6 11.3 0.00 0.03 0.00 52 1018.5
20260508150046 16 139 1.6 11.3 0.00 0.03 0.00 56 1018.5
20260508144547 15 0 0.0 8.0 0.00 0.03 0.00 56 1018.5
20260508143102 14 149 1.6 9.7 0.00 0.03 0.00 64 1018.5
20260508141541 13 0 0.0 4.8 0.00 0.03 0.00 69 1018.8
20260508140046 12 0 0.0 3.2 0.00 0.03 0.00 77 1018.8
20260508134545 11 0 0.0 3.2 0.00 0.03 0.00 82 1018.7
20260508133048 10 0 0.0 1.6 0.00 0.03 0.00 84 1018.6
20260508131547 9 0 0.0 4.8 0.00 0.03 0.00 87 1018.7
20260508130047 8 136 0.0 0.0 0.00 0.03 0.00 92 1018.5
20260508124543 7 0 0.0 0.0 0.00 0.03 0.00 96 1018.4
20260508123051 7 0 0.0 0.0 0.00 0.03 0.00 97 1018.4
20260508121551 6 0 0.0 0.0 0.00 0.03 0.00 97 1018.4
20260508120101 6 0 0.0 0.0 0.00 0.03 0.00 97 1018.3
20260508114547 5 0 0.0 0.0 0.00 0.03 0.00 97 1018.1
20260508113050 5 0 0.0 0.0 0.00 0.03 0.00 97 1017.9
20260508111546 5 0 0.0 0.0 0.00 0.03 0.00 97 1017.7
20260508104545 5 0 0.0 0.0 0.00 0.03 0.00 96 1017.3
20260508103049 5 0 0.0 0.0 0.00 0.03 0.00 94 1017.1
20260508101545 6 0 0.0 0.0 0.00 0.03 0.00 95 1016.9
20260508094549 6 0 0.0 0.0 0.00 0.03 0.00 95 1016.8
20260508093050 6 0 0.0 0.0 0.00 0.03 0.00 95 1016.7
20260508091607 6 0 0.0 0.0 0.00 0.03 0.00 94 1016.7
20260508090049 6 0 0.0 0.0 0.00 0.03 0.00 94 1016.6
20260508084548 5 0 0.0 0.0 0.00 0.03 0.00 93 1016.5
20260508083049 6 0 0.0 0.0 0.00 0.03 0.00 92 1016.6
20260508081608 6 0 0.0 0.0 0.00 0.03 0.00 91 1016.7
20260508080059 6 0 0.0 0.0 0.00 0.03 0.00 90 1016.7